Poplar Bluff, MO

10:45 PM CST on February 22, 2017 (GMT -0600)
Poplar Bluff Municipal

Weather History for KPOF - September, 2014

Change the Weather History Date:

Wednesday, September 3, 2014

  Actual Average Record
Temperature  
Mean Temperature 76 °F -  
Max Temperature 89 °F 87 °F 106 °F (1925)
Min Temperature 63 °F 64 °F 42 °F (1967)
Cooling Degree Days 10    
Growing Degree Days 26 (Base 50)    
Moisture  
Dew Point 66 °F    
Average Humidity 76    
Maximum Humidity 93    
Minimum Humidity 48    
Precipitation  
Precipitation 0.00 in - - ()
Sea Level Pressure  
Sea Level Pressure 30.00 in    
Wind  
Wind Speed 2 mph (SSE)    
Max Wind Speed 8 mph    
Max Gust Speed -    
Visibility 9 miles    
Events Fog    
Averages and records for this station are not official NWS values.
T = Trace of Precipitation, MM = Missing Value Source: NWS Daily Summary

Daily Weather History Graph

Daily Weather History Graph

Search for Another Location

Airport or City:

Trip Planner

Search our weather history database for the weather conditions in past years. The results will help you decide how hot, cold, wet, or windy it might be!

Date:

Astronomy

Sep. 03, 2014 Rise Set
Actual Time 6:33 AM CDT 7:26 PM CDT
Civil Twilight 6:07 AM CDT 7:52 PM CDT
Nautical Twilight 5:36 AM CDT 8:24 PM CDT
Astronomical Twilight 5:03 AM CDT 8:56 PM CDT
Moon 3:03 PM CDT (9/3) 12:32 AM CDT (9/3)
Length of Visible Light 13h 45m
Length of Day
12h 52m
Waxing Gibbous, 64% of the Moon is Illuminated
Sep 3
Waxing Gibbous
Sep 8
Full
Sep 15
Last Quarter
Sep 24
New
Oct 1
First Quarter

Hourly Weather History & Observations

Time (CDT) Temp. Heat Index Dew Point Humidity Pressure Visibility Wind Dir Wind Speed Gust Speed Precip Events Conditions
12:53 AM 68.0 °F - 64.0 °F 87% 30.00 in 10.0 mi Calm Calm - N/A   Clear
1:53 AM 68.0 °F - 64.0 °F 87% 29.99 in 10.0 mi NNW 3.5 mph - N/A   Clear
2:53 AM 68.0 °F - 64.0 °F 87% 29.98 in 10.0 mi WNW 3.5 mph - N/A   Clear
3:53 AM 66.9 °F - 64.0 °F 90% 29.99 in 10.0 mi Calm Calm - N/A   Clear
4:53 AM 66.0 °F - 63.0 °F 90% 29.99 in 10.0 mi Calm Calm - N/A   Clear
5:37 AM 64.9 °F - 62.1 °F 90% 30.01 in 1.8 mi Calm Calm - N/A   Clear
5:46 AM 64.0 °F - 62.1 °F 93% 30.01 in 0.5 mi Calm Calm - N/A Fog Fog
5:53 AM 64.0 °F - 61.0 °F 90% 30.01 in 0.8 mi Calm Calm - N/A   Clear
5:57 AM 63.0 °F - 61.0 °F 93% 30.02 in 3.0 mi Calm Calm - N/A   Clear
6:53 AM 64.0 °F - 61.0 °F 90% 30.02 in 6.0 mi Calm Calm - N/A   Clear
7:49 AM 68.0 °F - 64.4 °F 88% 30.04 in 9.0 mi Calm Calm - N/A   Scattered Clouds
7:53 AM 69.1 °F - 64.9 °F 87% 30.03 in 9.0 mi Calm Calm - N/A   Scattered Clouds
8:53 AM 73.9 °F - 68.0 °F 82% 30.02 in 10.0 mi East 3.5 mph - N/A   Clear
9:53 AM 78.1 °F - 69.1 °F 74% 30.04 in 10.0 mi SE 5.8 mph - N/A   Clear
10:53 AM 82.0 °F 84.9 °F 68.0 °F 62% 30.04 in 10.0 mi SSE 4.6 mph - N/A   Scattered Clouds
11:53 AM 82.9 °F 85.4 °F 66.9 °F 58% 30.02 in 10.0 mi Variable 3.5 mph - N/A   Partly Cloudy
12:53 PM 84.9 °F 87.6 °F 66.9 °F 55% 30.02 in 10.0 mi South 5.8 mph - N/A   Clear
1:53 PM 87.1 °F 90.6 °F 68.0 °F 53% 30.02 in 10.0 mi Variable 5.8 mph - N/A   Clear
2:53 PM 87.1 °F 90.6 °F 68.0 °F 53% 30.00 in 10.0 mi ESE 4.6 mph - N/A   Clear
3:53 PM 88.0 °F 91.4 °F 68.0 °F 51% 29.95 in 10.0 mi SE 6.9 mph - N/A   Clear
4:53 PM 88.0 °F 90.3 °F 66.0 °F 48% 29.93 in 10.0 mi SSE 8.1 mph - N/A   Clear
5:53 PM 87.1 °F 89.9 °F 66.9 °F 51% 29.95 in 10.0 mi South 5.8 mph - N/A   Clear
6:53 PM 84.0 °F 87.0 °F 68.0 °F 58% 29.95 in 10.0 mi SSW 3.5 mph - N/A   Clear
7:53 PM 77.0 °F - 69.1 °F 76% 29.96 in 10.0 mi Calm Calm - N/A   Clear
8:53 PM 73.9 °F - 69.1 °F 85% 29.98 in 10.0 mi Calm Calm - N/A   Clear
9:53 PM 73.0 °F - 66.9 °F 81% 29.99 in 10.0 mi Calm Calm - N/A   Clear
10:53 PM 72.0 °F - 66.0 °F 81% 30.00 in 10.0 mi SE 3.5 mph - N/A   Clear
11:53 PM 70.0 °F - 66.0 °F 87% 30.00 in 10.0 mi Calm Calm - N/A   Clear